オルバース彗星

13P/Olbers (2024)

English version
Home page
Updated on November 25, 2024

---------------------------------------------------------------------

・ プロフィール

検出日 2023年8月13日
検出光度 21.6等
検出者 A. Hale (Las Cumbres Observatory)

・ 写真集

・ 軌道要素

Epoch 2024 Oct. 17.0 TT = JDT 2460600.5
T 2024 June 30.04987 TT                                 Rudenko
q   1.1754691            (2000.0)            P               Q
n   0.01423662     Peri.   64.41662     -0.60853139     -0.37163270
a  16.8602768      Node    85.84709     +0.18556160     -0.92570082
e   0.9302817      Incl.   44.66598     +0.77152864     -0.07047780
P  69.2
>From 1918 observations 2023 Oct. 8-2024 Aug. 30, mean residual 0".5.
     Nongravitational parameters A1 = +0.68, A2 = -0.2968.

・ 星図

・ 光度変化

        m1 = 3.5 + 5 logΔ + 24.0 log r          [ ,0]  (              〜2024年 6月30日)
        m1 = 4.0 + 5 logΔ + 14.0 log r(t - 20)  [0, ]  (2024年 6月30日〜              )

---------------------------------------------------------------------

軌道要素はM.P.E.C. 2024-R10に掲載されたものです。
星図はステラナビゲータ Ver.10 (アストロアーツ) で作成したものです。
光度グラフはComet for Windowsで作成したものです。

---------------------------------------------------------------------

Copyright(C) Seiichi Yoshida (comet@aerith.net). All rights reserved.